Weather History for Frederick, MD

Change the Weather History Date:

Saturday, June 15, 2013

  Actual Average (KHGR) Record (KHGR)
Temperature  
Mean Temperature 68 °F -  
Max Temperature 80 °F 78 °F 88 °F (2004)
Min Temperature 55 °F 59 °F 50 °F (2007)
Cooling Degree Days 2    
Growing Degree Days 18 (Base 50)    
Moisture  
Dew Point 57 °F    
Average Humidity 83    
Maximum Humidity 100    
Minimum Humidity 37    
Precipitation  
Precipitation 0.00 in - - ()
Sea Level Pressure  
Sea Level Pressure 30.05 in    
Wind  
Wind Speed 2 mph (SW)    
Max Wind Speed 13 mph    
Max Gust Speed 18 mph    
Visibility 9 miles    
Events      
Averages and records for this station are not official NWS values.
T = Trace of Precipitation, MM = Missing Value Source: NWS Daily Summary

Daily Weather History Graph

Daily Weather History Graph

Search for Another Location

Airport:

Trip Planner

Search our weather history database for the weather conditions in past years. The results will help you decide how hot, cold, wet, or windy it might be!

Date:

Astronomy

Jun. 15, 2013 Rise Set
Actual Time 5:41 AM EDT 8:38 PM EDT
Civil Twilight 5:09 AM EDT 9:10 PM EDT
Nautical Twilight 4:28 AM EDT 9:51 PM EDT
Astronomical Twilight 3:41 AM EDT 10:39 PM EDT
Moon 12:12 PM EDT (6/15) 12:14 AM EDT (6/15)
Length of Visible Light 16h 01m
Length of Day
14h 56m
Waxing Crescent, 39% of the Moon is Illuminated
Jun 15
Waxing Crescent
Jun 16
First Quarter
Jun 23
Full
Jun 30
Last Quarter
Jul 8
New

Hourly Weather History & Observations

Time (EDT) Temp. Heat Index Dew Point Humidity Pressure Visibility Wind Dir Wind Speed Gust Speed Precip Events Conditions
12:15 AM 60.8 °F - 57.2 °F 88% 30.01 in 10.0 mi Calm Calm - N/A   Scattered Clouds
12:35 AM 59.0 °F - 59.0 °F 100% 30.01 in 10.0 mi Calm Calm - N/A   Scattered Clouds
12:55 AM 59.0 °F - 59.0 °F 100% 30.02 in 10.0 mi Calm Calm - N/A   Scattered Clouds
1:15 AM 59.0 °F - 57.2 °F 94% 30.02 in 10.0 mi Calm Calm - N/A   Clear
1:35 AM 59.0 °F - 57.2 °F 94% 30.02 in 10.0 mi East 3.5 mph - N/A   Clear
1:55 AM 59.0 °F - 59.0 °F 100% 30.02 in 10.0 mi Calm Calm - N/A   Clear
2:15 AM 59.0 °F - 57.2 °F 94% 30.03 in 10.0 mi Calm Calm - N/A   Clear
2:35 AM 59.0 °F - 57.2 °F 94% 30.02 in 10.0 mi Calm Calm - N/A   Clear
2:55 AM 59.0 °F - 57.2 °F 94% 30.02 in 10.0 mi Calm Calm - N/A   Clear
3:15 AM 55.4 °F - 55.4 °F 100% 30.02 in 10.0 mi Calm Calm - N/A   Clear
3:35 AM 55.4 °F - 55.4 °F 100% 30.03 in 7.0 mi Calm Calm - N/A   Clear
3:55 AM 55.4 °F - 55.4 °F 100% 30.03 in 7.0 mi Calm Calm - N/A   Clear
4:15 AM 55.4 °F - 55.4 °F 100% 30.02 in 7.0 mi SE 3.5 mph - N/A   Clear
4:35 AM 55.4 °F - 55.4 °F 100% 30.02 in 7.0 mi SSE 5.8 mph - N/A   Clear
4:55 AM 55.4 °F - 55.4 °F 100% 30.02 in 10.0 mi SSE 4.6 mph - N/A   Clear
5:15 AM 55.4 °F - 55.4 °F 100% 30.04 in 10.0 mi SSW 3.5 mph - N/A   Clear
5:35 AM 55.4 °F - 55.4 °F 100% 30.05 in 10.0 mi SSE 3.5 mph - N/A   Clear
5:55 AM 55.4 °F - 55.4 °F 100% 30.06 in 7.0 mi Calm Calm - N/A   Clear
6:15 AM 55.4 °F - 55.4 °F 100% 30.07 in 7.0 mi SSE 4.6 mph - N/A   Clear
6:35 AM 57.2 °F - 57.2 °F 100% 30.07 in 7.0 mi SSE 4.6 mph - N/A   Clear
6:45 AM 59.0 °F - 59.0 °F 100% 30.07 in 10.0 mi Calm Calm - N/A   Clear
7:55 AM 66.2 °F - 60.8 °F 83% 30.10 in 10.0 mi WSW 4.6 mph - N/A   Clear
8:50 AM 71.6 °F - 60.8 °F 69% 30.11 in 10.0 mi West 10.4 mph - N/A   Clear
9:47 AM 73.4 °F - 60.8 °F 65% 30.11 in 10.0 mi West 8.1 mph - N/A   Clear
10:50 AM 75.2 °F - 59.0 °F 57% 30.10 in 10.0 mi West 8.1 mph - N/A   Clear
11:45 AM 75.2 °F - 59.0 °F 57% 30.09 in 10.0 mi NW 9.2 mph - N/A   Clear
12:59 PM 78.8 °F - 57.2 °F 47% 30.08 in 10.0 mi WNW 10.4 mph - N/A   Clear
1:57 PM 78.8 °F - 57.2 °F 47% 30.06 in 10.0 mi WNW 4.6 mph 9.2 mph N/A   Clear
2:50 PM 80.6 °F 81.1 °F 59.0 °F 48% 30.05 in 10.0 mi WNW 12.7 mph 16.1 mph N/A   Clear
3:55 PM 80.6 °F 80.5 °F 55.4 °F 42% 30.05 in 10.0 mi West 10.4 mph 18.4 mph N/A   Clear
4:55 PM 80.6 °F 80.3 °F 53.6 °F 39% 30.04 in 10.0 mi WNW 10.4 mph - N/A   Clear
5:45 PM 80.6 °F - 51.8 °F 37% 30.03 in 10.0 mi WNW 5.8 mph - N/A   Clear
6:45 PM 80.6 °F 80.3 °F 53.6 °F 39% 30.03 in 10.0 mi NW 6.9 mph - N/A   Clear
8:55 PM 64.4 °F - 57.2 °F 77% 30.04 in 10.0 mi Calm Calm - N/A   Clear
9:15 PM 68.0 °F - 53.6 °F 60% 30.04 in 10.0 mi Calm Calm - N/A   Clear
9:35 PM 62.6 °F - 59.0 °F 88% 30.05 in 7.0 mi Calm Calm - N/A   Clear
9:55 PM 62.6 °F - 59.0 °F 88% 30.05 in 10.0 mi SSE 4.6 mph - N/A   Clear
10:15 PM 62.6 °F - 57.2 °F 82% 30.05 in 10.0 mi Calm Calm - N/A   Clear
10:35 PM 60.8 °F - 57.2 °F 88% 30.05 in 10.0 mi Calm Calm - N/A   Clear
10:55 PM 60.8 °F - 59.0 °F 94% 30.05 in 10.0 mi Calm Calm - N/A   Clear
11:15 PM 59.0 °F - 59.0 °F 100% 30.06 in 10.0 mi Calm Calm - N/A   Clear
11:35 PM 59.0 °F - 57.2 °F 94% 30.06 in 10.0 mi ESE 3.5 mph - N/A   Clear
11:55 PM 59.0 °F - 57.2 °F 94% 30.06 in 10.0 mi Calm Calm - N/A   Clear